Weather History for Jacksonville, FL

Change the Weather History Date:

Thursday, December 6, 2012

  Actual Average Record
Temperature  
Mean Temperature 66 °F 57 °F  
Max Temperature 72 °F 69 °F 83 °F (2013)
Min Temperature 59 °F 46 °F 26 °F (1876)
Degree Days  
Heating Degree Days 0 9  
Month to date heating degree days 8 50  
Since 1 July heating degree days 256 223  
Cooling Degree Days 1 1  
Month to date cooling degree days 1 6  
Year to date cooling degree days 2744 2650  
Growing Degree Days 16 (Base 50)    
Moisture  
Dew Point 60 °F    
Average Humidity 84    
Maximum Humidity 100    
Minimum Humidity 68    
Precipitation  
Precipitation 0.05 in 0.09 in 1.38 in (1979)
Month to date precipitation 0.23 0.53  
Year to date precipitation 51.33 50.12  
Snow  
Snow 0.00 in 0.00 in 0.00 in (2001)
Month to date snowfall 0.0 0.0  
Since 1 July snowfall 0.0 0.0  
Snow Depth 0.00 in    
Sea Level Pressure  
Sea Level Pressure 30.07 in    
Wind  
Wind Speed 8 mph (NE)    
Max Wind Speed 18 mph    
Max Gust Speed 24 mph    
Visibility 8 miles    
Events Rain    
T = Trace of Precipitation, MM = Missing Value Source: NWS Daily Summary

Daily Weather History Graph

Daily Weather History Graph

Search for Another Location

Airport:

Trip Planner

Search our weather history database for the weather conditions in past years. The results will help you decide how hot, cold, wet, or windy it might be!

Date:

Astronomy

Dec. 06, 2012 Rise Set
Actual Time 7:10 AM EST 5:25 PM EST
Civil Twilight 6:44 AM EST 5:52 PM EST
Nautical Twilight 6:14 AM EST 6:21 PM EST
Astronomical Twilight 5:44 AM EST 6:51 PM EST
Moon No Moon Rise 12:25 PM EST (12/6)
Length of Visible Light 11h 08m
Length of Day
10h 15m
Waning Gibbous, 49% of the Moon is Illuminated
Dec 6
Waning Gibbous
Dec 13
New
Dec 20
First Quarter
Dec 28
Full
Jan 4
Last Quarter

Hourly Weather History & Observations

Time (EST) Temp. Dew Point Humidity Pressure Visibility Wind Dir Wind Speed Gust Speed Precip Events Conditions
12:52 AM 60.8 °F 59.0 °F 94% 30.10 in 10.0 mi North 3.5 mph - N/A   Overcast
12:56 AM 61.0 °F 59.0 °F 93% 30.10 in 10.0 mi Calm Calm - N/A   Overcast
1:56 AM 59.0 °F 57.9 °F 96% 30.09 in 6.0 mi Calm Calm - N/A   Mostly Cloudy
2:56 AM 59.0 °F 57.9 °F 96% 30.08 in 6.0 mi Calm Calm - N/A   Mostly Cloudy
3:56 AM 60.1 °F 59.0 °F 96% 30.06 in 6.0 mi Calm Calm - N/A   Mostly Cloudy
4:56 AM 60.1 °F 57.9 °F 93% 30.06 in 6.0 mi Calm Calm - N/A   Mostly Cloudy
5:56 AM 60.1 °F 59.0 °F 96% 30.06 in 10.0 mi ENE 3.5 mph - N/A   Mostly Cloudy
6:56 AM 62.1 °F 60.1 °F 93% 30.08 in 10.0 mi East 9.2 mph - N/A   Mostly Cloudy
7:56 AM 64.0 °F 61.0 °F 90% 30.09 in 10.0 mi East 5.8 mph - N/A   Mostly Cloudy
8:56 AM 64.9 °F 61.0 °F 87% 30.10 in 10.0 mi East 6.9 mph - N/A   Overcast
9:56 AM 66.0 °F 61.0 °F 84% 30.12 in 10.0 mi ESE 3.5 mph - 0.00 in Rain Light Rain
10:56 AM 64.9 °F 62.1 °F 90% 30.12 in 3.0 mi NNE 3.5 mph - 0.04 in Rain Heavy Rain
11:56 AM 68.0 °F 64.0 °F 87% 30.09 in 10.0 mi NE 5.8 mph - 0.01 in   Mostly Cloudy
12:56 PM 69.1 °F 64.0 °F 84% 30.06 in 10.0 mi NE 11.5 mph - 0.00 in   Mostly Cloudy
1:56 PM 70.0 °F 62.1 °F 76% 30.04 in 10.0 mi NE 11.5 mph - N/A   Mostly Cloudy
2:56 PM 71.1 °F 61.0 °F 70% 30.03 in 10.0 mi NE 13.8 mph - N/A   Mostly Cloudy
3:33 PM 68.0 °F 62.6 °F 83% 30.03 in 10.0 mi NE 13.8 mph - N/A   Mostly Cloudy
3:56 PM 66.9 °F 62.1 °F 84% 30.04 in 10.0 mi NE 16.1 mph - N/A   Mostly Cloudy
4:56 PM 64.9 °F 60.1 °F 84% 30.05 in 10.0 mi NNE 13.8 mph - N/A   Mostly Cloudy
5:21 PM 64.4 °F 60.8 °F 88% 30.04 in 10.0 mi NNE 9.2 mph - N/A   Mostly Cloudy
5:56 PM 63.0 °F 60.1 °F 90% 30.05 in 10.0 mi NNE 6.9 mph - N/A   Mostly Cloudy
6:11 PM 62.6 °F 60.8 °F 94% 30.05 in 10.0 mi NNE 11.5 mph - N/A   Overcast
6:38 PM 62.6 °F 60.8 °F 94% 30.05 in 10.0 mi NE 15.0 mph - N/A   Overcast
6:56 PM 62.6 °F 60.8 °F 94% 30.05 in 9.0 mi NNE 15.0 mph - N/A   Overcast
7:56 PM 63.0 °F 60.1 °F 90% 30.05 in 8.0 mi NNE 11.5 mph - N/A   Overcast
8:56 PM 63.0 °F 60.1 °F 90% 30.06 in 7.0 mi NNE 10.4 mph - N/A   Overcast
9:56 PM 62.1 °F 59.0 °F 90% 30.05 in 6.0 mi NNE 13.8 mph - N/A   Overcast
10:56 PM 61.0 °F 60.1 °F 97% 30.05 in 4.0 mi NNE 11.5 mph - N/A   Overcast
11:56 PM 61.0 °F 60.1 °F 97% 30.04 in 3.0 mi NNE 12.7 mph - N/A   Overcast